Location: Treviso
(45.6669°N, 12.2430°E)
Time: 00:39:47
(UTC+02:00)

ISS - Pass Details

Date: 22 May 2017
Orbit: 402 x 408 km, 51.6° (Epoch: 30 May)

Event Time Altitude Azimuth Distance (km) Brightness Sun altitude
Exits shadow 23:42:26 17° 62° (ENE) 1,129 -1.5 -21.0°
Drops below altitude 10° 23:43:17 10° 62° (ENE) 1,470 -0.9 -21.0°
Sets 23:45:22 0° 62° (ENE) 2,331 0.1 -21.2°
